TimePDT,TemperatureF,Dew PointF,Humidity,Sea Level PressureIn,VisibilityMPH,Wind Direction,Wind SpeedMPH,Gust SpeedMPH,PrecipitationIn,Events,Conditions,WindDirDegrees,DateUTC
12:56 AM,54.0,46.0,75,29.94,10.0,SSW,4.6,-,N/A,,Mostly Cloudy,200,2013-06-03 07:56:00
1:56 AM,53.1,48.0,83,29.94,10.0,SSE,9.2,-,0.00,Rain,Light Rain,160,2013-06-03 08:56:00
2:56 AM,52.0,46.0,80,29.96,10.0,Calm,Calm,-,0.00,,Clear,0,2013-06-03 09:56:00
3:56 AM,50.0,46.0,86,29.97,10.0,Calm,Calm,-,N/A,,Clear,0,2013-06-03 10:56:00
4:56 AM,50.0,45.0,83,29.99,10.0,Calm,Calm,-,N/A,,Clear,0,2013-06-03 11:56:00
5:56 AM,51.1,46.9,86,30.00,10.0,Calm,Calm,-,N/A,,Partly Cloudy,0,2013-06-03 12:56:00
6:56 AM,54.0,45.0,72,30.00,10.0,South,3.5,-,N/A,,Clear,170,2013-06-03 13:56:00
7:56 AM,57.0,48.9,74,30.01,10.0,NNE,3.5,-,N/A,,Partly Cloudy,20,2013-06-03 14:56:00
8:56 AM,62.1,48.0,60,30.03,10.0,Calm,Calm,-,N/A,,Clear,0,2013-06-03 15:56:00
9:56 AM,66.0,46.9,50,30.02,10.0,Calm,Calm,-,N/A,,Clear,0,2013-06-03 16:56:00
10:56 AM,70.0,45.0,41,30.01,10.0,Variable,4.6,-,N/A,,Clear,0,2013-06-03 17:56:00
11:56 AM,71.1,43.0,36,30.00,10.0,Variable,6.9,-,N/A,,Clear,0,2013-06-03 18:56:00
12:56 PM,75.9,39.9,27,29.98,10.0,NW,8.1,18.4,N/A,,Clear,320,2013-06-03 19:56:00
1:56 PM,73.0,39.0,29,29.98,10.0,Calm,Calm,-,N/A,,Clear,0,2013-06-03 20:56:00
2:56 PM,73.0,39.9,30,29.98,10.0,East,4.6,-,0.00,,Scattered Clouds,100,2013-06-03 21:56:00
3:56 PM,75.0,39.9,28,29.96,10.0,Variable,3.5,-,N/A,,Overcast,0,2013-06-03 22:56:00
4:56 PM,75.0,39.9,28,29.96,10.0,Variable,6.9,-,N/A,,Mostly Cloudy,0,2013-06-03 23:56:00
5:56 PM,73.0,39.9,30,29.96,10.0,Variable,5.8,-,N/A,,Mostly Cloudy,0,2013-06-04 00:56:00
6:56 PM,75.0,39.0,27,29.96,10.0,NNW,5.8,-,N/A,,Mostly Cloudy,340,2013-06-04 01:56:00
7:56 PM,72.0,39.0,30,29.96,10.0,Calm,Calm,-,N/A,,Clear,0,2013-06-04 02:56:00
8:56 PM,68.0,39.9,36,29.97,10.0,Calm,Calm,-,N/A,,Clear,0,2013-06-04 03:56:00
9:56 PM,62.1,43.0,50,29.99,10.0,Calm,Calm,-,N/A,,Clear,0,2013-06-04 04:56:00
10:56 PM,61.0,42.1,50,30.00,10.0,SSW,5.8,-,N/A,,Clear,200,2013-06-04 05:56:00
11:56 PM,55.0,42.1,62,30.01,10.0,SE,5.8,-,N/A,,Clear,140,2013-06-04 06:56:00